{"data":{"norad_id":61593,"epoch":"2026-09-21T21:27:29.909088Z","epoch_age_seconds":71636,"freshness":"FRESH","line1":"1 61593U 24187V   26264.89409617 -.00000200  00000+0  52187-5 0  9990","line2":"2 61593  53.1596 227.2751 0001333  86.1792 273.9364 15.34385575109217","mean_motion":15.34385575,"eccentricity":0.0001333,"inclination_deg":53.1596,"raan_deg":227.2751,"arg_perigee_deg":86.1792,"mean_anomaly_deg":273.9364,"bstar":5.2187e-6,"rev_number":10921,"period_min":93.848640358862,"perigee_km":461.83422496374,"apogee_km":463.65800440211,"semimajor_km":6840.8831146829,"source":"CELESTRAK","updated_at":"2026-09-22T09:00:49.394326Z"}}